User: anonymous   Login
Location: Zagreb
(45.8000°N, 16.0000°E)
Time: 02:52:21
(UTC+01:00)
Language:

Transit 2A - Orbit

View from above orbital plane
View from above orbital plane
View from above satellite
View from above satellite

Ground track
Ground track

The orbit data is extracted from the following two-line orbital elements,

1 00045U 60007A   21015.51651405 -.00000048  00000-0  14888-4 0  9994
2 00045  66.6932 182.0264 0253370 162.8701 198.1153 14.33702051 96235
Epoch (UTC): 15 January 2021 12:23:46
Eccentricity: 0.0253370
inclination: 66.6932°
perigee height: 598 km
apogee height: 961 km
right ascension of ascending node: 182.0264°
argument of perigee: 162.8701°
revolutions per day: 14.33702051
mean anomaly at epoch: 198.1153°
orbit number at epoch: 9623

The dashed part of the orbit path shows where the satellite is in the earth's shadow,  

DLR